Regional Weather Roundup
Issued by NWS Cleveland, OH

Home | Current Version | Previous Version | Graphics & Text | Print | Product List | Glossary On
Versions: 1 2 3 4 5 6 7 8 9 10 11 12 13 14 15 16 17 18 19 20 21 22 23 24 25 26 27 28 29 30 31 32 33 34 35 36 37 38 39 40 41 42 43 44 45 46 47 48 49 50
000
ASUS41 KCLE 242110
RWRCLE
OHIO REGIONAL WEATHER ROUNDUP
NATIONAL WEATHER SERVICE CLEVELAND, OH
400 PM EST TUE JAN 24 2017

NOTE: "FAIR" INDICATES FEW OR NO CLOUDS BELOW 12,000 FEET WITH NO
SIGNIFICANT WEATHER AND/OR OBSTRUCTIONS TO VISIBILITY.

OHZ001>008-015>018-024>027-034-035-043-044-242200-
   NORTHWEST OHIO

CITY           SKY/WX    TMP DP  RH WIND       PRES   REMARKS
DEFIANCE       CLOUDY    40  34  79 NW9       29.81R
FINDLAY        CLOUDY    42  35  76 W16       29.79R
TOLEDO EXPRESS CLOUDY    40  36  86 W10       29.78R
TOLEDO EXEC    CLOUDY    42  38  85 W14       29.79R
LIMA           CLOUDY    39  35  86 NW14      29.80R
$$

OHZ009>014-019>023-028>033-038-089-242200-
   NORTHEAST OHIO

CITY           SKY/WX    TMP DP  RH WIND       PRES   REMARKS
CLE-HOPKINS    DRIZZLE   40  36  86 W13       29.76R
CLE-LAKEFRONT  CLOUDY    37  36  96 W14       29.74R FOG
CUY CO. ARPT   FOG       37  37 100 NW12      29.72S VSB 0
LORAIN-ELYRIA  CLOUDY    39  36  89 NW13      29.76R
ASHTABULA      FOG       35  35 100 W7        29.70F VSB 1   WCI  29
AKRON-CANTON   CLOUDY    39  36  89 NW13      29.71S FOG
WOOSTER        CLOUDY    39  37  92 NW17      29.74R
MANSFIELD      CLOUDY    39  39 100 W8        29.76R FOG
YOUNGSTOWN     CLOUDY    37  34  89 NW7       29.69S
$$

OHZ042-051>053-060>062-070>072-077>081-242200-
  SOUTHWEST OHIO

CITY           SKY/WX    TMP DP  RH WIND       PRES   REMARKS
CINC-COVINGTON CLOUDY    42  35  76 NW8       29.83S
CINC-LUNKEN    CLOUDY    45  36  70 W9        29.86S
HAMILTON       CLOUDY    44  36  73 W8        29.86R
DAYTON         CLOUDY    40  34  79 W12       29.83R
WRIGHT-PAT AFB CLOUDY    42  36  79 W10       29.82R
DAYTON GENERAL CLOUDY    42  35  76 W6        29.82R
WILMINGTON     CLOUDY    42  38  85 W9        29.81S
$$

OHZ036-037-039>041-045>050-054>059-063>069-073>076-082>088-242200-
  CENTRAL AND SOUTHEAST OHIO

CITY           SKY/WX    TMP DP  RH WIND       PRES   REMARKS
COLUMBUS       CLOUDY    42  39  89 W16       29.79R
OSU AIRPORT    CLOUDY    42  39  89 NW12      29.79R
BOLTON FIELD   CLOUDY    41  37  87 NW7G16    29.81R
RICKENBACK AFB CLOUDY    41  40  94 NW12G17   29.80R
NEWARK         CLOUDY    44  39  82 W10       29.77R
MARION         CLOUDY    41  38  89 W9        29.79R
LANCASTER      CLOUDY    43  39  86 W9G21     29.80R
ZANESVILLE     CLOUDY    44  38  79 W7        29.76R
NEW PHILLY     NOT AVBL
$$




USA.gov is the U.S. government's official web portal to all federal, state and local government web resources and services.